1510678800.29,61104,9.06,73494.5,-8.85,-40.09,-39.97,0,*5E
1510678801.56,61105,9.06,73492.5,-8.87,-40.15,-40.21,0,*53
1510678802.84,61106,9.06,73492.8,-8.87,-40.21,-40.21,0,*57
1510678804.11,61107,9.06,73488.8,-8.87,-40.15,-40.21,0,*51
1510678805.33,61108,9.06,73494.0,-8.85,-40.15,-40.15,0,*5B
1510678806.56,61109,9.06,73498.3,-8.87,-40.03,-40.03,0,*58
1510678807.8,61110,9.06,73492.0,-8.85,-39.91,-39.97,0,*54
1510678809.06,61111,9.06,73494.3,-8.85,-39.97,-40.09,0,*5A
1510678810.32,61112,9.06,73496.5,-8.87,-39.97,-40.03,0,*51
1510678811.57,61113,9.06,73494.5,-8.85,-40.15,-40.29,0,*5E
1510678812.77,61114,9.06,73494.5,-8.85,-40.53,-40.53,0,*56
1510678814.01,61115,9.06,73494.0,-8.87,-40.73,-40.73,0,*55
1510678815.24,61116,9.06,73498.3,-8.87,-40.73,-40.73,0,*56
1510678816.47,61117,9.06,73496.8,-8.87,-40.73,-40.73,0,*57
1510678817.76,61118,9.06,73496.8,-8.87,-40.59,-40.59,0,*58
1510678819.02,61119,9.06,73498.3,-8.87,-40.53,-40.41,0,*5A
1510678820.29,61120,9.06,73496.0,-8.87,-40.41,-40.53,0,*50
1510678821.55,61121,9.06,73494.5,-8.87,-40.35,-40.41,0,*51
1510678822.8,61122,9.06,73498.0,-8.87,-40.21,-40.35,0,*54
1510678824.06,61123,9.06,73496.3,-8.87,-40.35,-40.21,0,*55
1510678825.29,61124,9.06,73498.5,-8.89,-39.97,-40.03,0,*5A
1510678826.55,61125,9.06,73496.3,-8.89,-39.97,-39.97,0,*58
1510678827.82,61126,9.06,73496.3,-8.89,-39.79,-39.79,0,*5B
1510678829.06,61127,9.06,73496.0,-8.89,-39.91,-39.97,0,*5C
1510678830.32,61128,9.06,73494.3,-8.87,-39.91,-39.97,0,*5D
1510678831.62,61129,9.06,73496.0,-8.87,-39.71,-39.71,0,*5A
1510678832.82,61130,9.06,73496.5,-8.85,-39.47,-39.47,0,*50
1510678834.03,61131,9.06,73494.5,-8.85,-39.47,-39.47,0,*51
1510678835.32,61132,9.06,73498.5,-8.87,-39.59,-39.53,0,*5A
1510678836.54,61133,9.06,73496.0,-8.85,-39.65,-39.65,0,*53
1510678837.78,61134,9.06,73496.3,-8.85,-39.85,-39.71,0,*5F
1510678839.08,61135,9.06,73496.8,-8.87,-39.79,-39.79,0,*57
1510678840.32,61136,9.06,73496.3,-8.85,-39.91,-39.79,0,*50
1510678841.56,61137,9.06,73496.0,-8.81,-39.65,-39.65,0,*53
1510678842.8,61138,9.06,73498.5,-8.83,-39.85,-39.71,0,*55
1510678844.04,61139,9.06,73492.5,-8.83,-39.85,-39.71,0,*54
1510678845.28,61140,9.06,73494.3,-8.83,-39.85,-39.71,0,*5A
1510678846.54,61141,9.06,73494.5,-8.83,-39.97,-39.97,0,*50
1510678847.78,61142,9.06,73496.0,-8.83,-39.85,-39.71,0,*58
1510678848.99,61143,9.06,73494.5,-8.83,-39.85,-39.85,0,*52
1510678850.26,61144,9.06,73496.5,-8.83,-39.71,-39.71,0,*55
1510678851.52,61145,9.06,73496.8,-8.81,-39.71,-39.65,0,*53
1510678852.81,61146,9.06,73496.0,-8.81,-39.71,-39.71,0,*55
1510678854.05,61147,9.06,73500.3,-8.81,-39.65,-39.65,0,*54
1510678855.31,61148,9.06,73500.0,-8.83,-39.29,-39.29,0,*59
1510678856.59,61149,9.06,73496.8,-8.81,-39.53,-39.29,0,*57
1510678857.82,61150,9.06,73498.5,-8.81,-39.65,-39.35,0,*57
1510678859.12,61151,9.06,73494.8,-8.77,-39.79,-39.79,0,*5A
1510678860.36,61152,9.0,73488.5,-8.77,-39.85,-39.85,0,*59
1510678861.61,61153,9.06,73494.0,-8.77,-39.91,-40.03,0,*5D
1510678862.84,61154,9.06,73492.8,-8.77,-40.03,-40.03,0,*5F
1510678864.11,61155,9.06,73494.0,-8.77,-40.03,-40.09,0,*54
1510678865.32,61156,9.06,73494.5,-8.75,-40.03,-40.15,0,*58
1510678866.55,61157,9.06,73492.0,-8.75,-40.21,-40.35,0,*5B
1510678867.85,61158,9.06,73500.3,-8.77,-40.41,-40.41,0,*53
1510678869.11,61159,9.06,73494.0,-8.77,-40.47,-40.41,0,*54
1510678870.41,61160,9.06,73496.5,-8.77,-40.41,-40.41,0,*58
1510678871.7,61161,9.0,73492.8,-8.77,-40.29,-40.29,0,*59
1510678873.0,61162,9.06,73498.8,-8.77,-40.41,-40.41,0,*5A
1510678874.23,61163,9.06,73504.0,-8.81,-40.53,-40.53,0,*52
1510678875.46,61164,9.06,73500.3,-8.81,-40.47,-40.53,0,*50
1510678876.72,61165,9.06,73502.5,-8.83,-40.29,-40.29,0,*56
1510678877.97,61166,9.06,73498.3,-8.81,-40.35,-40.29,0,*5A
1510678879.21,61167,9.06,73498.8,-8.81,-40.47,-40.47,0,*56
1510678880.43,61168,9.06,73498.3,-8.81,-40.53,-40.47,0,*5C
1510678881.66,61169,9.06,73496.0,-8.81,-40.53,-40.47,0,*5D
1510678882.86,61170,9.06,73496.5,-8.83,-40.53,-40.53,0,*52
1510678884.07,61171,9.06,73496.8,-8.83,-40.65,-40.53,0,*56
1510678885.27,61172,9.06,73496.8,-8.83,-40.47,-40.35,0,*55
1510678886.5,61173,9.06,73496.5,-8.81,-40.53,-40.53,0,*53
1510678887.71,61174,9.0,73494.8,-8.83,-40.65,-40.65,0,*56
1510678888.91,61175,9.06,73498.5,-8.83,-40.65,-40.73,0,*50
1510678890.12,61176,9.06,73502.8,-8.83,-40.35,-40.35,0,*54
1510678891.36,61177,9.06,73500.5,-8.83,-40.15,-40.29,0,*5A
1510678892.57,61178,9.0,73496.8,-8.83,-40.35,-40.47,0,*5F
1510678893.78,61179,9.06,73500.5,-8.83,-40.47,-40.47,0,*5B
1510678894.98,61180,9.0,73496.8,-8.85,-40.53,-40.53,0,*5B
1510678896.21,61181,9.06,73506.3,-8.85,-40.29,-40.35,0,*57
1510678897.45,61182,9.0,73502.0,-8.83,-40.09,-40.15,0,*52
1510678898.69,61183,9.06,73502.5,-8.85,-40.09,-40.15,0,*55
1510678899.94,61184,9.06,73504.5,-8.85,-40.15,-40.29,0,*50
1510678901.2,61185,9.0,73502.0,-8.87,-40.35,-40.41,0,*5F
1510678902.46,61186,9.06,73500.0,-8.85,-40.09,-40.29,0,*5F
1510678903.71,61187,9.06,73502.8,-8.85,-40.15,-40.29,0,*53
1510678904.91,61188,9.06,73504.3,-8.85,-40.35,-40.47,0,*56
1510678906.18,61189,9.06,73506.0,-8.87,-40.59,-40.53,0,*5A
1510678907.45,61190,9.0,73504.5,-8.87,-40.15,-40.21,0,*5F
1510678908.7,61191,9.06,73502.3,-8.85,-40.29,-40.29,0,*5B
1510678909.92,61192,9.0,73500.5,-8.85,-40.15,-40.15,0,*58
1510678911.18,61193,9.06,73500.3,-8.87,-40.21,-40.15,0,*5C
1510678912.39,61194,9.0,73498.8,-8.85,-40.35,-40.35,0,*5E
1510678913.59,61195,9.0,73496.8,-8.85,-40.35,-40.47,0,*5A
1510678914.8,61196,9.0,73498.3,-8.85,-40.35,-40.47,0,*59
1510678916.01,61197,9.0,73496.3,-8.85,-40.35,-40.35,0,*5D
1510678917.26,61198,9.0,73500.0,-8.87,-40.21,-40.35,0,*55
1510678918.5,61199,9.06,73504.0,-8.85,-40.15,-40.29,0,*5C
1510678919.71,61200,9.0,73500.5,-8.85,-40.35,-40.35,0,*50
1510678920.94,61201,9.06,73502.5,-8.85,-40.29,-40.35,0,*5C
1510678922.17,61202,9.0,73502.0,-8.85,-39.97,-40.15,0,*56
1510678923.38,61203,9.06,73506.3,-8.85,-40.35,-40.35,0,*53
1510678924.63,61204,9.06,73506.0,-8.85,-40.15,-40.29,0,*5B
1510678925.86,61205,9.06,73504.8,-8.87,-40.03,-40.03,0,*57
1510678927.12,61206,9.06,73504.0,-8.87,-39.97,-40.03,0,*57
1510678928.33,61207,9.06,73500.8,-8.85,-39.85,-39.91,0,*52
1510678929.55,61208,9.06,73500.5,-8.85,-39.85,-39.91,0,*5D
1510678930.8,61209,9.0,73502.3,-8.85,-39.97,-39.97,0,*59
1510678932.07,61210,9.06,73500.8,-8.85,-40.09,-40.09,0,*51
1510678933.31,61211,9.0,73502.8,-8.85,-39.91,-39.97,0,*56
1510678934.57,61212,9.06,73504.5,-8.85,-39.97,-39.97,0,*53
1510678935.78,61213,9.0,73498.0,-8.85,-39.85,-39.85,0,*52
1510678937.01,61214,9.06,73502.3,-8.85,-39.97,-40.15,0,*51
1510678938.24,61215,9.06,73496.3,-8.85,-40.15,-40.15,0,*54
1510678939.44,61216,9.06,73498.0,-8.85,-40.35,-40.35,0,*57
1510678940.64,61217,9.0,73496.0,-8.83,-40.53,-40.47,0,*55
1510678941.84,61218,9.0,73494.8,-8.85,-40.53,-40.35,0,*59
1510678943.1,61219,9.06,73492.8,-8.85,-40.29,-40.29,0,*58
1510678944.31,61220,9.06,73492.3,-8.85,-40.47,-40.53,0,*57
1510678945.52,61221,9.06,73494.0,-8.85,-40.73,-40.53,0,*51
1510678946.78,61222,9.06,73494.8,-8.85,-40.41,-40.29,0,*5E
1510678948.05,61223,9.06,73494.5,-8.87,-40.59,-40.53,0,*59
1510678949.32,61224,9.0,73498.3,-8.87,-40.15,-40.21,0,*53
1510678950.55,61225,9.06,73498.8,-8.87,-40.35,-40.35,0,*55
1510678951.76,61226,9.06,73500.0,-8.85,-40.47,-40.47,0,*54
1510678953.02,61227,9.06,73498.5,-8.87,-40.59,-40.53,0,*5D
1510678954.28,61228,9.06,73500.8,-8.87,-40.59,-40.53,0,*52
1510678955.54,61229,9.0,73496.5,-8.87,-40.53,-40.41,0,*5A
1510678956.81,61230,9.06,73502.3,-8.87,-40.15,-40.21,0,*56
1510678958.06,61231,9.06,73498.5,-8.87,-40.15,-40.15,0,*50
1510678959.32,61232,9.0,73498.0,-8.87,-40.35,-40.29,0,*5E
1510678960.52,61233,9.0,73498.5,-8.85,-40.47,-40.47,0,*50
1510678961.79,61234,9.06,73496.0,-8.87,-40.59,-40.53,0,*5F
1510678963.02,61235,9.0,73496.3,-8.87,-40.53,-40.53,0,*54
1510678964.31,61236,9.06,73504.5,-8.87,-40.41,-40.41,0,*57
1510678965.55,61237,9.06,73502.0,-8.89,-40.59,-40.53,0,*52
1510678966.8,61238,9.0,73502.8,-8.87,-40.53,-40.41,0,*5A
1510678968.06,61239,9.06,73502.5,-8.87,-40.59,-40.73,0,*50
1510678969.3,61240,9.0,73502.0,-8.87,-40.73,-40.73,0,*56
1510678970.53,61241,9.0,73502.8,-8.89,-40.53,-40.59,0,*53
1510678971.8,61242,9.0,73500.8,-8.89,-40.41,-40.41,0,*5A
1510678973.03,61243,9.06,73504.0,-8.89,-40.59,-40.53,0,*51
1510678974.29,61244,9.0,73502.3,-8.91,-40.47,-40.41,0,*53
1510678975.54,61245,9.06,73500.3,-8.91,-40.65,-40.59,0,*5B
1510678976.79,61246,9.0,73502.3,-8.91,-40.65,-40.59,0,*58
1510678978.03,61247,9.0,73502.3,-8.89,-40.53,-40.59,0,*55
1510678979.27,61248,9.0,73498.5,-8.89,-40.41,-40.53,0,*53
1510678980.52,61249,9.0,73502.3,-8.91,-40.65,-40.59,0,*57
1510678981.74,61250,9.06,73506.8,-8.91,-40.65,-40.65,0,*50
1510678982.96,61251,9.0,73500.5,-8.91,-40.65,-40.65,0,*51
1510678984.19,61252,9.06,73506.8,-8.91,-40.65,-40.47,0,*52
1510678985.41,61253,9.06,73506.5,-8.91,-40.47,-40.47,0,*53
1510678986.64,61254,9.0,73506.5,-8.91,-40.47,-40.47,0,*54
1510678987.86,61255,9.06,73504.3,-8.91,-40.65,-40.65,0,*55
1510678989.12,61256,9.06,73506.0,-8.91,-40.47,-40.59,0,*59
1510678990.33,61257,9.0,73500.8,-8.93,-40.53,-40.53,0,*55
1510678991.54,61258,9.0,73498.8,-8.93,-40.47,-40.53,0,*5F
1510678992.75,61259,9.0,73502.8,-8.93,-40.35,-40.35,0,*5B
1510678993.96,61260,9.0,73500.5,-8.93,-40.35,-40.53,0,*51
1510678995.19,61261,9.0,73502.5,-8.93,-40.29,-40.35,0,*5D
1510678996.39,61262,9.0,73504.3,-8.93,-40.47,-40.47,0,*53
1510678997.65,61263,9.0,73504.5,-8.91,-40.47,-40.59,0,*5F
1510678998.93,61264,9.0,73504.3,-8.91,-40.21,-40.29,0,*5F
1510679000.15,61265,9.0,73504.5,-8.93,-40.15,-40.15,0,*54
1510679001.38,61266,9.06,73510.0,-8.93,-40.09,-40.03,0,*5D
1510679002.65,61267,9.0,73502.8,-8.93,-40.09,-40.09,0,*56
1510679003.9,61268,9.06,73510.0,-8.93,-40.15,-40.09,0,*54
1510679005.11,61269,9.06,73506.3,-8.93,-40.47,-40.53,0,*5D
1510679006.31,61270,9.0,73506.5,-8.93,-40.53,-40.65,0,*55
1510679007.52,61271,9.06,73506.5,-8.93,-40.47,-40.65,0,*51
1510679008.73,61272,9.06,73504.0,-8.93,-40.47,-40.53,0,*57
1510679009.99,61273,9.0,73502.3,-8.95,-40.29,-40.35,0,*58
1510679011.22,61274,9.0,73502.8,-8.95,-40.35,-40.65,0,*57
1510679012.45,61275,9.0,73506.5,-8.95,-40.53,-40.65,0,*56
1510679013.67,61276,9.06,73506.0,-8.95,-40.53,-40.65,0,*55
1510679014.88,61277,9.0,73504.8,-8.93,-40.65,-40.65,0,*57
1510679016.1,61278,9.0,73504.3,-8.95,-40.65,-40.53,0,*5B
1510679017.34,61279,9.0,73504.5,-8.95,-40.47,-40.65,0,*5F
1510679018.54,61280,9.0,73504.8,-8.93,-40.65,-40.65,0,*5F
1510679019.74,61281,9.0,73504.0,-8.93,-40.65,-40.65,0,*5E
1510679020.97,61282,9.0,73504.8,-8.95,-40.53,-40.65,0,*5E
1510679022.2,61283,9.0,73504.3,-8.95,-40.73,-40.73,0,*5A
1510679023.46,61284,9.06,73510.0,-8.95,-40.73,-40.85,0,*54
1510679024.69,61285,9.06,73506.8,-8.95,-40.65,-40.73,0,*5B
1510679025.95,61286,9.0,73508.0,-8.95,-40.65,-40.85,0,*51
1510679027.15,61287,9.0,73506.5,-8.97,-40.73,-40.73,0,*5C
1510679028.41,61288,9.0,73506.0,-8.99,-40.41,-40.35,0,*5E
1510679029.65,61289,9.0,73506.8,-8.97,-40.35,-40.21,0,*57
1510679030.89,61290,9.0,73504.5,-8.97,-40.15,-40.21,0,*5D
1510679032.13,61291,9.0,73506.5,-8.97,-40.41,-40.53,0,*58
1510679033.38,61292,9.0,73504.5,-8.97,-40.21,-40.21,0,*58
1510679034.65,61293,9.0,73506.0,-8.97,-40.41,-40.59,0,*50
1510679035.89,61294,9.0,73504.5,-8.97,-40.59,-40.73,0,*56
1510679037.12,61295,9.0,73506.0,-8.99,-40.53,-40.53,0,*51
1510679038.35,61296,9.0,73504.3,-8.97,-40.35,-40.41,0,*5F
1510679039.61,61297,9.06,73510.8,-8.97,-40.21,-40.41,0,*5B
1510679040.87,61298,9.0,73508.5,-8.97,-40.21,-40.21,0,*52
1510679042.13,61299,9.0,73508.0,-8.97,-39.97,-40.09,0,*5A
1510679043.39,61300,9.0,73504.5,-8.97,-40.09,-40.09,0,*52
1510679044.63,61301,9.0,73506.5,-8.97,-39.97,-39.91,0,*55
1510679045.89,61302,9.0,73506.3,-8.97,-39.97,-39.97,0,*50
1510679047.13,61303,9.0,73504.5,-8.97,-40.09,-40.15,0,*5C
1510679048.39,61304,9.0,73506.0,-8.97,-39.97,-40.09,0,*5F
1510679049.65,61305,9.0,73506.8,-8.95,-39.85,-39.71,0,*5E
1510679050.86,61306,9.06,73510.5,-8.93,-39.91,-39.85,0,*55
1510679052.11,61307,9.0,73504.0,-8.97,-39.79,-39.91,0,*53
1510679053.33,61308,9.0,73502.5,-8.97,-40.15,-40.15,0,*5A
1510679054.6,61309,9.0,73502.0,-8.97,-40.09,-40.09,0,*5B
1510679055.83,61310,9.0,73502.5,-8.97,-39.97,-39.91,0,*55
1510679057.07,61311,9.0,73502.5,-8.95,-39.91,-39.85,0,*55
1510679058.28,61312,9.0,73500.0,-8.93,-39.91,-39.85,0,*50
1510679059.5,61313,9.0,73500.0,-8.93,-39.91,-39.85,0,*51
1510679060.74,61314,9.0,73500.3,-8.93,-40.15,-40.09,0,*5E
1510679061.96,61315,9.0,73504.0,-8.93,-40.15,-40.35,0,*50
1510679063.22,61316,9.0,73506.3,-8.95,-40.09,-40.03,0,*5D
1510679064.48,61317,9.0,73504.8,-8.95,-39.53,-39.65,0,*53
1510679065.72,61318,9.0,73502.5,-8.93,-39.85,-39.71,0,*54
1510679066.98,61319,9.0,73500.3,-8.93,-39.71,-39.53,0,*5E
1510679068.19,61320,9.0,73500.8,-8.93,-40.03,-39.91,0,*51
1510679069.41,61321,9.0,73502.0,-8.93,-39.91,-39.91,0,*55
1510679070.62,61322,9.0,73500.5,-8.93,-40.03,-40.03,0,*56
1510679071.86,61323,9.0,73500.3,-8.93,-40.03,-40.09,0,*5D
1510679073.1,61324,9.0,73498.8,-8.93,-40.15,-40.29,0,*5F
1510679074.32,61325,9.0,73502.3,-8.93,-40.15,-40.15,0,*51
1510679075.55,61326,9.0,73498.3,-8.95,-40.47,-40.47,0,*54
1510679076.78,61327,9.0,73498.5,-8.91,-40.47,-40.47,0,*51
1510679077.98,61328,9.0,73498.5,-8.93,-40.53,-40.65,0,*59
1510679079.19,61329,9.0,73500.3,-8.93,-40.47,-40.47,0,*5D
1510679080.46,61330,9.0,73500.5,-8.95,-40.15,-40.29,0,*5C
1510679081.7,61331,9.0,73500.8,-8.95,-40.15,-40.15,0,*52
1510679082.93,61332,9.0,73498.3,-8.93,-40.29,-40.47,0,*5F
1510679084.14,61333,9.0,73502.3,-8.93,-40.35,-40.35,0,*56
1510679085.37,61334,9.0,73500.3,-8.95,-40.47,-40.53,0,*52
1510679086.61,61335,9.0,73502.3,-8.95,-40.47,-40.53,0,*53
1510679087.81,61336,9.0,73502.5,-8.93,-40.53,-40.65,0,*56
1510679089.02,61337,9.0,73502.8,-8.93,-40.53,-40.65,0,*57
1510679090.25,61338,9.0,73502.0,-8.95,-40.47,-40.47,0,*5B
1510679091.51,61339,9.0,73500.0,-8.95,-40.09,-40.15,0,*57
1510679092.74,61340,9.0,73498.3,-8.95,-40.35,-40.47,0,*51
1510679093.97,61341,9.0,73500.0,-8.95,-40.35,-40.47,0,*50
1510679095.21,61342,9.0,73502.5,-8.95,-40.47,-40.53,0,*53
1510679096.46,61343,9.06,73500.8,-8.95,-40.29,-40.15,0,*58
1510679097.72,61344,9.0,73496.8,-8.95,-40.29,-40.47,0,*58
1510679099.0,61345,9.0,73500.0,-8.95,-40.29,-40.29,0,*51
1510679100.25,61346,9.0,73496.3,-8.95,-40.29,-40.35,0,*5F
1510679101.48,61347,9.0,73498.8,-8.95,-40.35,-40.47,0,*56
1510679102.75,61348,9.0,73502.3,-8.95,-40.15,-40.29,0,*53
1510679103.98,61349,9.0,73502.0,-8.95,-39.91,-40.03,0,*58
1510679105.27,61350,9.0,73502.8,-8.95,-40.09,-40.09,0,*55
1510679106.5,61351,9.0,73498.5,-8.95,-40.35,-40.47,0,*51
1510679107.74,61352,9.0,73496.5,-8.95,-40.35,-40.47,0,*52
1510679108.97,61353,9.0,73500.3,-8.95,-40.35,-40.53,0,*56
1510679110.2,61354,9.0,73500.5,-8.95,-40.53,-40.53,0,*51
1510679111.45,61355,9.0,73502.0,-8.95,-40.29,-40.47,0,*58
1510679112.69,61356,9.0,73502.3,-8.97,-40.41,-40.53,0,*52
1510679113.9,61357,9.0,73500.5,-8.97,-40.53,-40.53,0,*50
1510679115.19,61358,9.0,73506.3,-8.99,-40.59,-40.59,0,*51
1510679116.41,61359,9.0,73502.5,-8.97,-40.21,-40.35,0,*5B
1510679117.66,61360,9.0,73502.3,-8.97,-40.15,-40.09,0,*59
1510679118.93,61361,9.0,73506.8,-8.99,-40.15,-40.21,0,*5C
1510679120.19,61362,9.0,73502.3,-8.97,-39.97,-39.97,0,*56
1510679121.43,61363,9.0,73504.0,-8.97,-39.91,-39.97,0,*51
1510679122.69,61364,9.0,73504.3,-8.97,-40.09,-40.21,0,*5A
1510679123.92,61365,9.0,73502.8,-8.97,-40.21,-40.35,0,*54
1510679125.14,61366,9.0,73502.0,-8.97,-40.21,-40.35,0,*57
1510679126.41,61367,9.0,73498.0,-8.97,-40.41,-40.41,0,*53
1510679127.65,61368,9.0,73500.0,-8.97,-40.41,-40.53,0,*5F
1510679128.94,61369,9.0,73498.5,-8.99,-40.41,-40.59,0,*5A
1510679130.19,61370,9.0,73502.5,-8.99,-40.21,-40.35,0,*5E
1510679131.44,61371,9.06,73502.3,-8.97,-40.15,-40.21,0,*53
1510679132.69,61372,9.0,73500.3,-8.99,-40.21,-40.35,0,*5C
1510679133.92,61373,9.0,73500.8,-8.99,-40.35,-40.53,0,*58
1510679135.16,61374,9.0,73502.5,-8.97,-40.35,-40.41,0,*52
1510679136.42,61375,9.0,73500.8,-8.99,-40.53,-40.41,0,*5D
1510679137.71,61376,9.0,73500.8,-8.99,-40.41,-40.59,0,*54
1510679138.98,61377,9.0,73500.8,-8.97,-40.41,-40.59,0,*5B
1510679140.22,61378,9.0,73496.8,-8.99,-40.15,-40.35,0,*51
1510679141.48,61379,9.0,73500.5,-8.99,-40.35,-40.41,0,*51
1510679142.7,61380,9.0,73502.5,-8.97,-40.21,-40.35,0,*5F
1510679143.97,61381,9.06,73506.0,-8.99,-40.41,-40.53,0,*56
1510679145.17,61382,9.0,73500.5,-8.97,-40.35,-40.35,0,*58
1510679146.44,61383,9.06,73506.8,-8.99,-40.35,-40.41,0,*54
1510679147.67,61384,9.0,73504.3,-8.99,-40.35,-40.53,0,*50
1510679148.91,61385,9.0,73506.3,-8.99,-40.15,-40.35,0,*53
1510679150.19,61386,9.0,73506.0,-8.99,-40.21,-40.41,0,*54
1510679151.46,61387,9.0,73504.5,-8.99,-40.15,-40.21,0,*54
1510679152.73,61388,9.0,73506.5,-8.97,-40.09,-40.09,0,*52
1510679153.97,61389,9.0,73506.3,-8.99,-40.15,-40.15,0,*5D
1510679155.25,61390,9.0,73504.8,-8.99,-40.21,-40.41,0,*53
1510679156.52,61391,9.0,73506.5,-8.99,-40.41,-40.53,0,*57
1510679157.77,61392,9.0,73506.0,-8.99,-40.53,-40.59,0,*5D
1510679159.06,61393,9.0,73502.0,-8.99,-40.41,-40.59,0,*5F
1510679160.3,61394,9.0,73502.3,-8.99,-40.35,-40.53,0,*51
1510679161.53,61395,9.0,73504.8,-8.99,-40.35,-40.35,0,*50
1510679162.82,61396,9.0,73506.3,-8.99,-40.09,-40.21,0,*59
1510679164.05,61397,9.0,73500.8,-8.99,-40.35,-40.53,0,*52
1510679165.31,61398,9.0,73504.5,-9.03,-40.41,-40.47,0,*59
1510679166.54,61399,9.0,73506.8,-9.03,-40.65,-40.65,0,*5E
1510679167.83,61400,9.0,73504.8,-9.03,-40.59,-40.79,0,*5B
1510679169.09,61401,9.0,73504.8,-8.99,-40.35,-40.41,0,*59
1510679170.37,61402,9.0,73506.8,-9.03,-40.21,-40.29,0,*53
1510679171.64,61403,9.0,73506.3,-9.03,-40.15,-40.21,0,*5D
1510679172.93,61404,9.0,73506.3,-9.03,-40.29,-40.41,0,*53
1510679174.21,61405,9.0,73506.0,-9.03,-40.21,-40.21,0,*5C
1510679175.48,61406,9.0,73504.3,-9.03,-40.15,-40.21,0,*58
1510679176.75,61407,9.0,73504.8,-9.03,-40.15,-40.21,0,*59
1510679177.99,61408,9.0,73506.0,-9.03,-40.15,-40.15,0,*51
1510679179.28,61409,9.0,73504.0,-9.03,-39.97,-39.97,0,*50
1510679180.57,61410,9.0,73504.5,-8.99,-39.79,-39.79,0,*5A
1510679181.86,61411,9.0,73506.5,-8.99,-39.71,-39.71,0,*5B
1510679183.13,61412,9.0,73506.8,-8.99,-39.79,-39.91,0,*5E
1510679184.37,61413,9.0,73508.8,-8.99,-39.91,-39.91,0,*59
1510679185.64,61414,9.0,73506.8,-8.99,-39.91,-39.97,0,*58
1510679186.92,61415,9.0,73508.5,-8.99,-39.97,-40.09,0,*56
1510679188.19,61416,9.0,73506.8,-8.97,-40.09,-40.09,0,*52
1510679189.48,61417,9.0,73506.8,-8.99,-40.09,-40.09,0,*5D
1510679190.76,61418,9.0,73508.5,-8.99,-39.97,-40.09,0,*5B
1510679192.05,61419,9.0,73504.5,-8.99,-40.09,-40.09,0,*53
1510679193.32,61420,9.0,73508.3,-8.99,-39.91,-39.97,0,*5F
1510679194.6,61421,9.0,73508.0,-8.99,-39.97,-39.97,0,*58
1510679195.88,61422,9.0,73510.5,-8.99,-39.97,-40.09,0,*52
1510679197.14,61423,9.0,73504.0,-8.97,-39.97,-39.97,0,*54
1510679198.38,61424,9.0,73508.0,-8.97,-39.97,-39.91,0,*55
1510679199.62,61425,9.0,73508.3,-8.97,-39.91,-39.79,0,*54
1510679200.9,61426,9.0,73508.5,-8.99,-39.97,-39.97,0,*5F
1510679202.16,61427,9.0,73506.5,-8.97,-39.97,-39.97,0,*50
1510679203.43,61428,9.0,73510.8,-8.97,-39.79,-39.71,0,*57
1510679204.67,61429,9.0,73508.0,-8.97,-39.91,-39.97,0,*58
1510679205.88,61430,9.0,73510.3,-8.97,-39.91,-39.91,0,*56
1510679207.18,61431,9.0,73508.0,-8.99,-39.79,-39.79,0,*59
1510679208.39,61432,9.0,73508.3,-8.97,-39.91,-39.91,0,*54
1510679209.63,61433,9.0,73508.8,-8.97,-39.97,-40.15,0,*51
1510679210.89,61434,9.0,73510.0,-8.97,-39.97,-40.09,0,*5B
1510679212.14,61435,9.0,73504.8,-8.97,-39.79,-39.91,0,*55
1510679213.4,61436,9.0,73508.8,-8.97,-39.53,-39.59,0,*5A
1510679214.66,61437,9.0,73508.3,-8.95,-39.71,-39.65,0,*56
1510679215.9,61438,9.0,73504.8,-8.95,-39.85,-39.85,0,*5C
1510679217.16,61439,9.0,73504.8,-8.95,-39.85,-39.71,0,*56
1510679218.4,61440,9.0,73504.8,-8.95,-39.85,-39.65,0,*5D
1510679219.67,61441,9.0,73506.3,-8.95,-39.71,-39.65,0,*57
1510679220.91,61442,9.0,73506.0,-8.95,-39.91,-39.91,0,*51
1510679222.12,61443,9.0,73504.0,-8.93,-39.85,-39.85,0,*56
1510679223.38,61444,9.0,73506.5,-8.95,-40.03,-40.09,0,*5D
1510679224.59,61445,9.0,73504.0,-8.93,-40.03,-40.03,0,*50
1510679225.88,61446,9.0,73506.0,-8.95,-40.09,-40.29,0,*57
1510679227.15,61447,9.0,73504.8,-8.93,-40.09,-40.29,0,*50
1510679228.39,61448,9.0,73506.0,-8.93,-40.09,-40.15,0,*50
1510679229.66,61449,9.0,73510.0,-8.95,-40.15,-40.09,0,*57
1510679230.95,61450,9.0,73504.8,-8.95,-40.09,-40.29,0,*50
1510679232.19,61451,9.0,73504.5,-8.95,-40.15,-40.35,0,*51
1510679233.42,61452,9.0,73506.3,-8.95,-40.47,-40.53,0,*55
1510679234.65,61453,9.0,73506.5,-8.95,-40.47,-40.47,0,*51
1510679235.86,61454,9.0,73510.3,-8.93,-40.35,-40.35,0,*50
1510679237.09,61455,9.0,73506.3,-8.95,-40.47,-40.53,0,*52
1510679238.33,61456,9.0,73508.5,-8.95,-40.35,-40.53,0,*54
1510679239.54,61457,9.0,73506.5,-8.93,-40.35,-40.47,0,*56
1510679240.76,61458,9.0,73504.3,-8.99,-40.53,-40.73,0,*54
1510679242.05,61459,9.0,73506.3,-8.99,-40.41,-40.41,0,*57
1510679243.3,61460,9.0,73504.0,-8.97,-40.15,-40.21,0,*54
1510679244.54,61461,9.0,73508.8,-8.97,-40.41,-40.53,0,*51
1510679245.77,61462,9.0,73506.3,-8.97,-40.53,-40.41,0,*52
1510679247.04,61463,9.0,73506.3,-8.99,-40.41,-40.53,0,*5D
1510679248.32,61464,9.0,73510.8,-8.99,-40.21,-40.41,0,*5F
1510679249.57,61465,9.0,73506.8,-8.99,-40.21,-40.53,0,*5D
1510679250.84,61466,9.0,73510.5,-8.99,-40.41,-40.53,0,*58
1510679252.11,61467,9.0,73510.3,-8.99,-40.15,-40.21,0,*5D
1510679253.33,61468,9.0,73508.0,-8.97,-40.15,-40.15,0,*5B
1510679254.62,61469,9.0,73510.3,-8.99,-40.09,-40.09,0,*54
1510679255.88,61470,9.0,73508.5,-8.97,-40.09,-40.09,0,*52
1510679257.15,61471,9.0,73510.5,-8.99,-40.09,-40.15,0,*50
1510679258.4,61472,9.0,73504.5,-8.99,-40.21,-40.35,0,*5B
1510679259.62,61473,9.0,73506.0,-8.97,-40.21,-40.35,0,*54
1510679260.88,61474,9.0,73510.8,-8.99,-40.21,-40.35,0,*5D
1510679262.11,61475,9.0,73508.5,-8.99,-40.35,-40.53,0,*59
1510679263.37,61476,9.0,73506.5,-8.99,-40.41,-40.53,0,*59
1510679264.61,61477,9.0,73510.5,-8.97,-40.41,-40.53,0,*56
1510679265.86,61478,9.0,73510.5,-8.97,-40.41,-40.53,0,*59
1510679267.12,61479,9.0,73510.3,-8.99,-40.41,-40.53,0,*56
1510679268.35,61480,9.0,73508.8,-8.99,-40.53,-40.53,0,*53
1510679269.64,61481,9.0,73510.0,-8.99,-40.41,-40.41,0,*52
1510679270.91,61482,9.0,73506.5,-8.99,-40.41,-40.53,0,*52
1510679272.14,61483,9.0,73508.0,-8.99,-40.35,-40.53,0,*50
1510679273.37,61484,9.0,73508.8,-9.05,-40.29,-40.47,0,*5B
1510679274.64,61485,9.0,73510.8,-9.03,-40.15,-40.21,0,*53
1510679275.9,61486,9.0,73508.0,-8.99,-40.35,-40.41,0,*56
1510679277.18,61487,9.0,73508.3,-9.05,-40.41,-40.59,0,*59
1510679278.44,61488,9.0,73508.3,-9.03,-40.47,-40.59,0,*56
1510679279.73,61489,9.0,73508.8,-9.03,-40.59,-40.59,0,*58
1510679281.01,61490,9.0,73508.5,-9.03,-40.59,-40.79,0,*52
1510679282.24,61491,9.0,73510.0,-9.03,-40.65,-40.65,0,*51
1510679283.47,61492,9.0,73510.0,-9.05,-40.65,-40.79,0,*59
1510679284.7,61493,9.0,73510.0,-9.05,-40.65,-40.79,0,*58
1510679285.96,61494,9.0,73506.8,-9.05,-40.59,-40.79,0,*50
1510679287.21,61495,9.0,73510.5,-9.05,-40.79,-40.79,0,*53
1510679288.45,61496,9.0,73510.0,-9.05,-40.59,-40.65,0,*5F
1510679289.68,61497,9.0,73510.0,-9.07,-40.53,-40.73,0,*51
1510679290.9,61498,9.0,73508.5,-9.07,-40.53,-40.65,0,*59
1510679292.13,61499,9.0,73510.0,-9.07,-40.53,-40.65,0,*58
1510679293.36,61500,9.0,73510.0,-9.07,-40.53,-40.65,0,*59
1510679294.58,61501,9.0,73510.8,-9.09,-40.47,-40.53,0,*56
1510679295.79,61502,9.0,73508.8,-9.09,-40.47,-40.53,0,*55
1510679297.05,61503,9.0,73508.3,-9.07,-40.29,-40.47,0,*57
1510679298.26,61504,9.0,73506.3,-9.09,-40.35,-40.35,0,*56
1510679299.48,61505,9.0,73510.0,-9.09,-40.47,-40.53,0,*52
1510679300.69,61506,9.0,73510.3,-9.09,-40.65,-40.73,0,*53
1510679301.93,61507,9.0,73508.3,-9.09,-40.65,-40.85,0,*5B
1510679303.17,61508,9.0,73512.3,-9.09,-40.65,-40.85,0,*54
1510679304.42,61509,9.0,73508.0,-9.09,-40.73,-40.85,0,*52
1510679305.63,61510,9.0,73512.8,-9.09,-40.73,-40.65,0,*54
1510679306.84,61511,9.0,73508.8,-9.09,-40.65,-40.73,0,*55
1510679308.05,61512,9.0,73508.8,-9.09,-40.73,-40.73,0,*51
1510679309.31,61513,9.0,73510.8,-9.11,-40.73,-40.79,0,*53
1510679310.57,61514,9.0,73508.3,-9.11,-40.73,-40.79,0,*54
1510679311.87,61515,9.0,73512.5,-9.11,-40.41,-40.59,0,*56